Theta_e
319 317 314 314 313 312 312 313 312 311 312 313 314 314 314 315 316 318 318 319 319 321 322 324 325 327 328 330 330 329 328 326 328 326 326 326 326 325 325 327 327 327 326
314 313 313 310 310 309 309 309 309 308 309 309 309 310 310 310 312 312 313 314 315 316 317 319 320 321 321 319 320 324 324 324 325 327 327 326 327 327 327 327 327 326 326
313 311 310 310 310 309 308 307 307 307 306 306 307 307 307 307 307 309 309 309 310 311 313 314 315 315 316 316 315 316 314 314 315 319 321 320 322 322 323 323 325 326 326
311 310 310 309 308 307 306 305 304 304 303 303 303 303 303 303 303 304 306 304 305 307 308 309 310 311 312 313 314 314 314 314 313 314 314 314 315 316 317 318 318 319 320
309 308 306 306 305 304 303 302 301 300 300 300 300 301 301 302 302 299 300 302 303 304 304 305 305 306 306 307 309 310 311 312 311 311 312 311 312 312 313 314 315 315 316
306 305 304 303 302 301 300 300 300 300 299 299 299 299 300 300 298 297 297 299 301 301 302 302 303 302 303 302 302 302 303 306 308 309 309 310 311 311 312 312 313 313 315
303 302 300 299 299 299 299 299 299 299 299 299 299 299 299 299 297 297 297 299 300 300 301 301 302 302 302 303 303 302 302 301 302 304 306 308 309 309 310 311 312 312 312
300 299 298 298 298 298 298 298 298 297 298 298 298 299 299 300 299 298 298 299 299 299 299 299 300 300 301 300 300 300 301 303 303 303 304 304 305 306 307 308 308 309 310
298 298 297 297 297 297 298 298 297 297 298 299 300 300 300 301 300 300 298 299 300 300 300 299 298 298 298 298 298 299 300 300 301 301 300 300 301 301 302 303 304 306 307
297 296 296 296 297 298 297 297 297 298 299 299 299 299 299 301 300 300 299 297 297 299 299 300 300 299 298 297 297 298 298 299 301 301 301 301 302 302 302 302 304 305 305
295 295 296 296 296 296 296 296 296 298 298 298 300 300 300 300 301 300 301 299 298 298 299 300 301 300 299 298 298 298 299 299 300 300 300 300 301 302 303 304 304 304 304
295 295 296 296 296 295 296 298 298 298 299 299 300 300 301 301 301 300 300 301 301 298 299 302 303 301 300 299 298 298 298 297 298 299 299 300 301 302 302 303 303 304 304
296 296 296 296 295 296 297 298 298 299 299 299 299 299 300 300 300 300 299 303 304 302 301 302 303 303 301 300 301 300 299 297 296 297 300 302 303 302 302 302 302 304 304
296 296 296 295 294 296 297 298 298 299 298 298 298 298 299 299 299 298 297 299 301 302 302 302 302 302 301 301 302 302 300 299 297 297 298 300 303 301 300 301 302 305 306
295 295 294 294 293 295 297 297 298 299 296 296 296 296 297 296 295 295 297 298 299 300 301 301 302 302 303 304 305 305 305 303 299 298 298 299 300 302 302 302 304 305 307
295 294 293 293 293 293 295 297 297 296 295 295 295 294 293 293 295 297 300 301 302 302 301 302 303 304 305 305 306 307 310 311 307 301 298 298 300 301 303 302 303 304 307
293 293 293 292 292 293 294 296 297 297 296 295 295 295 293 294 296 298 301 300 301 302 301 301 301 300 301 301 303 305 307 312 310 307 301 301 301 303 302 304 304 305 306
293 292 293 292 292 293 295 295 295 295 296 295 295 294 294 296 296 297 297 299 300 299 299 299 298 298 298 298 299 301 305 311 310 306 304 303 304 305 307 306 306 308 308
293 293 293 294 293 292 294 294 294 294 293 292 293 292 293 295 295 296 295 296 296 297 296 297 297 296 296 296 297 298 301 304 312 310 309 309 309 309 309 309 310 309 310
292 290 291 293 293 293 293 293 293 292 291 291 291 290 290 292 293 293 293 293 294 295 295 295 295 295 294 294 294 295 297 301 304 311 311 312 311 311 311 309 309 311 311
292 291 290 293 292 292 292 291 292 290 290 289 289 289 289 290 290 290 291 291 292 293 292 293 292 292 292 292 292 293 294 296 298 305 312 312 312 312 310 311 312 313 313
291 291 291 290 290 290 290 290 290 289 289 288 288 289 289 289 289 289 290 290 290 291 291 291 291 290 290 290 290 290 291 293 299 304 309 316 314 313 313 313 314 314 313
291 290 289 289 289 289 289 289 288 288 288 288 287 288 287 287 287 288 288 289 289 289 289 289 290 289 289 290 289 289 289 290 294 299 306 315 318 318 318 317 315 313 311
289 288 288 288 288 288 287 287 287 287 287 287 287 287 287 286 287 287 287 288 288 288 288 288 289 288 289 289 288 288 290 293 293 298 307 312 316 317 316 315 313 310 310
287 287 287 287 286 286 287 286 287 286 285 285 285 285 286 285 286 286 286 286 287 287 287 288 288 288 288 288 286 286 290 295 297 299 303 306 310 311 315 315 315 314 313
286 286 286 286 285 285 286 286 286 286 285 285 286 286 286 286 286 286 287 287 287 288 288 287 288 288 286 287 289 290 291 292 295 296 299 301 302 304 306 311 314 315 314
Wind_Speed
18 24 26 21 20 20 20 16 14 12 13 11 12 11 11 11 11 10 9 9 10 9 9 8 8 7 8 10 9 11 12 11 13 21 19 18 18 20 24 20 24 22 24
16 25 21 20 20 19 20 14 13 13 12 13 13 13 13 12 12 12 12 11 10 9 10 10 10 9 10 12 11 10 8 9 12 15 24 20 20 19 21 21 21 24 23
20 22 22 23 22 15 10 11 12 12 13 14 14 14 14 14 14 14 12 13 12 12 11 10 11 10 11 10 10 12 14 14 16 16 20 22 19 19 21 21 23 24 25
23 23 20 13 10 8 9 11 12 13 13 14 15 15 15 16 16 15 15 17 17 16 16 15 16 15 16 15 15 15 16 17 18 21 25 26 23 22 23 25 27 26 28
16 13 10 9 8 8 9 9 11 11 12 13 13 13 13 13 10 15 15 16 16 17 18 20 20 20 19 19 20 21 20 21 22 24 25 25 24 24 24 25 27 25 23
10 9 8 8 8 10 11 12 12 13 13 12 11 11 11 11 14 15 14 15 15 16 17 18 18 20 21 24 25 27 28 27 27 26 27 25 25 26 25 25 25 22 13
8 7 8 9 10 11 11 12 12 12 13 13 13 14 15 14 17 17 18 16 17 17 18 18 18 17 17 17 18 20 22 23 28 30 31 30 30 28 29 27 25 25 24
7 8 9 9 10 10 10 10 11 12 13 13 12 13 14 13 17 18 19 15 17 17 18 19 19 19 18 18 18 18 18 17 17 19 21 24 27 27 27 25 24 23 23
10 11 11 11 10 9 9 9 10 11 11 12 13 14 14 14 18 18 18 16 18 20 19 18 18 20 21 22 22 20 19 21 19 21 24 25 29 32 31 24 22 16 15
8 8 8 8 7 8 10 10 10 10 13 13 13 13 13 14 16 21 21 17 17 18 20 20 20 21 23 21 19 22 24 25 23 23 20 20 21 22 22 21 20 16 16
8 7 6 6 5 7 8 8 7 10 11 11 12 14 13 16 18 24 26 24 20 19 19 21 19 21 23 23 24 25 27 25 24 24 26 24 21 20 19 19 20 21 18
4 3 3 4 5 6 6 7 8 9 10 13 15 16 17 18 19 21 28 27 25 20 21 22 23 25 29 32 32 34 36 34 28 27 25 24 22 22 21 21 21 22 24
4 5 5 5 6 7 7 9 8 10 12 14 15 16 19 18 19 22 28 31 31 29 23 25 30 33 34 33 34 33 32 30 26 24 25 24 22 21 18 19 21 19 21
5 5 6 7 9 8 7 8 7 11 15 15 15 16 18 19 21 25 28 29 28 24 23 27 28 28 28 28 31 31 27 28 28 27 26 24 18 14 17 17 16 14 15
4 6 7 7 8 9 9 8 7 9 14 14 14 17 19 22 24 25 26 27 26 25 25 19 22 24 24 25 26 26 25 26 24 27 23 18 17 13 14 12 12 11 12
4 6 7 6 7 8 9 10 9 15 14 15 15 19 19 19 22 23 20 21 26 25 21 23 24 25 23 25 25 27 28 23 21 22 18 16 12 12 11 12 12 10 10
5 6 7 6 7 9 9 10 13 14 15 17 20 23 22 19 24 24 20 22 29 28 27 24 22 24 25 27 27 28 29 30 29 5 12 10 9 10 10 7 7 9 10
5 6 5 6 8 8 9 11 12 16 19 22 20 23 24 22 26 27 30 23 30 32 27 25 26 27 27 27 28 28 30 28 25 17 8 5 4 3 3 3 5 7 6
5 6 6 7 7 8 8 9 11 12 14 15 18 23 26 25 25 30 32 28 24 25 28 27 28 29 29 29 29 30 30 30 22 20 12 8 6 3 1 1 1 1 5
4 7 6 7 7 8 8 9 10 12 13 15 17 22 27 23 27 30 29 25 25 25 26 26 28 28 29 31 32 31 30 31 28 19 14 10 8 7 6 2 2 0 3
4 5 7 7 8 8 8 9 10 12 14 15 17 22 23 20 22 23 24 26 26 26 27 27 28 29 30 30 30 32 32 30 27 26 18 13 11 7 5 3 3 2 0
5 5 6 8 8 9 9 9 10 12 14 16 18 21 23 22 22 23 23 25 24 25 26 26 26 28 29 31 32 31 32 33 32 30 28 10 7 7 4 4 5 6 6
7 7 9 10 9 9 11 12 13 13 13 15 17 19 23 23 23 25 25 26 25 26 26 26 25 28 31 27 29 30 33 34 29 25 28 23 15 15 12 11 11 9 7
9 11 11 11 11 12 13 13 13 15 15 15 16 18 20 24 26 25 26 27 26 24 27 29 26 29 29 29 28 27 32 30 24 20 22 23 21 18 14 12 10 10 9
11 14 12 11 12 13 13 13 13 14 16 17 17 17 18 21 24 27 27 25 24 25 24 24 26 28 28 30 32 32 33 29 26 23 19 19 18 17 13 10 10 9 9
16 18 12 12 14 13 14 14 14 15 15 16 17 18 19 20 21 21 22 25 23 22 23 24 24 25 30 32 36 38 38 34 29 29 21 19 19 18 16 14 10 7 5
Wind_Direction
96 92 88 82 73 65 59 52 48 40 34 24 20 17 20 12 5 2 353 345 336 324 305 294 286 284 277 273 265 259 255 252 260 259 256 269 270 268 267 262 269 266 261
92 85 81 78 75 65 49 40 32 26 16 8 1 357 357 353 349 347 345 346 344 336 325 316 303 288 280 272 270 267 266 278 271 269 265 277 272 271 269 267 267 265 266
90 80 72 58 49 48 39 28 13 2 354 348 339 341 334 328 328 322 319 317 313 307 301 298 291 290 285 281 276 272 271 268 262 265 275 272 265 267 271 271 268 269 268
67 61 62 62 57 41 19 7 353 342 333 331 328 324 319 320 317 315 310 308 302 293 289 284 282 279 277 275 270 267 267 265 262 262 266 268 266 264 259 260 263 260 263
76 75 68 52 31 12 358 345 336 334 333 332 330 326 326 322 324 326 317 309 303 299 291 286 281 279 277 269 271 270 268 267 267 266 267 267 262 258 254 260 263 265 263
77 64 40 20 357 351 346 342 343 347 347 345 343 340 343 340 336 347 343 324 316 310 304 299 293 288 285 283 279 271 264 263 262 263 265 266 267 265 264 263 265 265 265
50 38 15 2 355 350 352 355 358 356 356 351 350 350 347 340 341 347 343 333 322 318 313 310 308 302 299 294 290 285 278 270 262 264 270 268 273 268 269 271 269 270 272
21 16 4 355 353 0 2 2 360 357 350 350 354 354 345 349 2 356 346 335 325 316 311 306 302 302 303 304 302 293 284 281 276 272 268 270 270 271 269 270 270 273 270
14 6 359 355 355 358 358 354 353 352 359 359 355 354 351 347 342 348 342 326 316 314 312 308 305 303 300 301 298 291 287 278 276 277 282 279 271 265 266 276 274 273 271
4 358 355 358 1 358 352 353 352 359 357 349 344 343 333 334 345 354 349 331 315 314 311 306 298 288 290 294 290 288 284 279 280 282 280 282 276 271 266 253 256 260 264
356 354 356 356 353 350 347 351 351 351 343 337 339 344 341 337 335 347 353 340 318 310 305 304 300 293 291 293 284 280 273 276 275 276 279 275 268 262 260 251 245 241 247
345 353 2 3 12 355 358 1 357 345 347 350 351 350 349 344 339 340 345 349 343 313 302 302 303 304 301 296 286 275 273 270 268 264 262 260 256 252 248 247 246 245 242
14 19 14 22 12 3 0 359 353 359 358 353 348 342 338 339 339 338 336 342 339 330 315 310 316 316 309 303 301 293 287 269 254 250 249 250 250 249 245 246 249 249 248
16 8 14 20 9 1 358 356 353 5 357 351 342 335 334 339 341 339 338 334 328 326 321 315 320 328 322 311 310 306 285 265 245 240 241 247 261 242 236 242 240 235 233
11 15 18 10 360 356 357 350 0 7 1 351 349 346 344 339 337 345 341 336 339 340 339 338 333 329 324 323 316 308 295 274 243 235 236 234 238 234 236 226 228 230 229
16 21 6 351 354 353 348 355 352 356 2 19 14 4 350 346 357 2 6 19 17 11 0 348 346 345 341 336 337 332 333 320 272 231 215 217 219 220 231 225 222 219 227
28 14 358 0 1 355 358 353 349 349 2 16 13 12 12 13 24 22 25 24 22 20 15 3 356 350 349 346 346 343 345 3 19 120 175 185 196 215 216 211 206 212 217
19 13 11 17 11 3 360 0 358 0 357 3 8 10 20 33 32 31 28 26 24 20 10 3 1 357 356 354 352 351 353 5 33 53 84 125 173 182 180 202 199 201 216
25 12 14 34 25 19 13 14 10 9 6 3 1 10 20 34 31 36 34 30 20 11 3 3 3 3 1 359 -0 359 2 6 24 41 51 63 73 76 66 316 316 234 215
26 22 33 51 36 29 24 21 21 18 14 13 9 8 7 16 22 22 22 18 16 11 4 3 2 4 4 5 5 4 9 17 14 14 40 43 51 44 50 91 166 136 230
36 33 49 59 47 34 31 27 29 29 21 17 14 17 26 21 19 18 16 16 13 9 7 6 5 6 7 7 9 7 7 8 14 18 17 31 37 50 24 23 2 325 93
58 59 59 61 54 46 42 39 40 37 30 22 19 25 30 31 27 23 22 20 18 14 14 10 10 12 9 8 7 7 6 6 12 11 6 1 41 48 55 32 12 45 79
82 81 72 65 61 58 54 48 45 40 33 28 23 21 25 25 25 27 24 24 20 17 18 17 16 13 12 13 12 10 8 3 3 359 0 355 20 18 34 35 32 51 68
90 86 76 70 68 64 59 51 47 45 40 35 30 29 24 25 29 28 26 28 24 17 19 23 18 15 14 15 14 10 12 13 4 5 3 9 18 29 35 37 38 50 62
92 84 76 73 68 65 62 57 52 47 43 39 34 31 27 25 24 29 24 19 15 17 20 21 18 14 15 16 15 14 19 24 26 28 14 16 19 21 27 37 37 43 53
92 86 79 77 70 68 65 60 54 49 45 39 36 33 30 28 26 23 20 19 18 19 18 18 17 15 17 18 19 21 24 26 32 35 23 17 16 14 13 13 16 31 34